Weather History for Cheboygan, MI

Change the Weather History Date:

Saturday, March 2, 2013

  Actual Average (KPLN) Record (KPLN)
Temperature  
Mean Temperature 17 °F -  
Max Temperature 23 °F 31 °F 49 °F (1964)
Min Temperature 11 °F 11 °F -34 °F (1962)
Degree Days  
Heating Degree Days 48    
Moisture  
Dew Point 10 °F    
Average Humidity 74    
Maximum Humidity 85    
Minimum Humidity 60    
Precipitation  
Precipitation 0.00 in - - ()
Sea Level Pressure  
Sea Level Pressure 30.14 in    
Wind  
Wind Speed 9 mph (NNW)    
Max Wind Speed 14 mph    
Max Gust Speed 18 mph    
Visibility 9 miles    
Events Snow    
Averages and records for this station are not official NWS values.
T = Trace of Precipitation, MM = Missing Value Source: NWS Daily Summary

Daily Weather History Graph

Daily Weather History Graph

Search for Another Location

Airport:

Trip Planner

Search our weather history database for the weather conditions in past years. The results will help you decide how hot, cold, wet, or windy it might be!

Date:

Astronomy

Mar. 02, 2013 Rise Set
Actual Time 7:14 AM EST 6:26 PM EST
Civil Twilight 6:44 AM EST 6:56 PM EST
Nautical Twilight 6:10 AM EST 7:30 PM EST
Astronomical Twilight 5:35 AM EST 8:05 PM EST
Moon No Moon Rise 9:24 AM EST (3/2)
Length of Visible Light 12h 11m
Length of Day
11h 12m
Waning Gibbous, 74% of the Moon is Illuminated
Mar 2
Waning Gibbous
Mar 4
Last Quarter
Mar 11
New
Mar 19
First Quarter
Mar 27
Full

Hourly Weather History & Observations

Time (EST) Temp. Windchill Dew Point Humidity Pressure Visibility Wind Dir Wind Speed Gust Speed Precip Events Conditions
12:15 AM 19.2 °F 9.3 °F 10.8 °F 70% 30.18 in 10.0 mi North 8.1 mph 16.1 mph N/A   Overcast
12:35 AM 19.0 °F 9.0 °F 10.6 °F 70% 30.18 in 10.0 mi North 8.1 mph - N/A   Overcast
12:54 AM 18.7 °F 6.3 °F 10.2 °F 70% 30.18 in 10.0 mi North 11.5 mph 16.1 mph N/A   Overcast
1:15 AM 18.5 °F 7.5 °F 10.4 °F 71% 30.18 in 10.0 mi North 9.2 mph - N/A   Overcast
1:35 AM 18.1 °F 7.1 °F 10.2 °F 71% 30.18 in 10.0 mi North 9.2 mph 16.1 mph N/A   Overcast
1:55 AM 18.0 °F 4.8 °F 9.9 °F 71% 30.19 in 10.0 mi North 12.7 mph 16.1 mph N/A   Overcast
2:15 AM 17.4 °F 4.7 °F 9.1 °F 70% 30.19 in 10.0 mi North 11.5 mph - N/A   Overcast
2:35 AM 16.7 °F 4.5 °F 9.1 °F 72% 30.18 in 10.0 mi North 10.4 mph 17.3 mph N/A   Overcast
2:55 AM 16.5 °F 4.3 °F 9.1 °F 73% 30.18 in 10.0 mi North 10.4 mph - N/A   Overcast
3:15 AM 16.0 °F 3.6 °F 8.4 °F 72% 30.18 in 10.0 mi North 10.4 mph - N/A   Overcast
3:35 AM 15.8 °F 3.4 °F 8.4 °F 73% 30.17 in 10.0 mi North 10.4 mph - N/A   Overcast
3:55 AM 15.6 °F 3.2 °F 8.4 °F 73% 30.17 in 10.0 mi North 10.4 mph - N/A   Overcast
4:15 AM 14.9 °F 0.3 °F 8.6 °F 76% 30.16 in 10.0 mi NNW 13.8 mph 18.4 mph N/A   Overcast
4:35 AM 14.7 °F 1.4 °F 8.6 °F 77% 30.16 in 10.0 mi North 11.5 mph - N/A   Overcast
4:55 AM 14.5 °F 0.5 °F 8.4 °F 77% 30.16 in 10.0 mi NNW 12.7 mph - N/A   Overcast
5:15 AM 14.4 °F 3.3 °F 8.4 °F 77% 30.16 in 10.0 mi North 8.1 mph - N/A   Overcast
5:34 AM 14.0 °F 5.1 °F 8.2 °F 78% 30.16 in 10.0 mi NNW 5.8 mph - N/A   Overcast
5:55 AM 13.8 °F 3.7 °F 8.2 °F 78% 30.17 in 10.0 mi NW 6.9 mph - N/A   Overcast
6:15 AM 13.8 °F 4.9 °F 8.6 °F 80% 30.17 in 10.0 mi NNW 5.8 mph - N/A   Overcast
6:35 AM 13.5 °F 3.3 °F 7.9 °F 78% 30.17 in 10.0 mi NW 6.9 mph - N/A   Overcast
6:55 AM 13.1 °F 5.4 °F 7.7 °F 79% 30.18 in 10.0 mi WNW 4.6 mph - N/A Snow Light Snow
7:15 AM 12.7 °F 3.6 °F 7.3 °F 79% 30.18 in 10.0 mi NW 5.8 mph - N/A Snow Light Snow
7:35 AM 12.0 °F -0.4 °F 6.8 °F 80% 30.17 in 10.0 mi NW 9.2 mph - N/A Snow Light Snow
7:55 AM 11.7 °F 1.1 °F 6.6 °F 80% 30.18 in 10.0 mi WNW 6.9 mph - N/A Snow Light Snow
8:15 AM 12.0 °F -1.3 °F 6.8 °F 80% 30.18 in 7.0 mi NW 10.4 mph - N/A Snow Light Snow
8:35 AM 12.0 °F -1.3 °F 6.8 °F 80% 30.18 in 7.0 mi NNW 10.4 mph - N/A Snow Light Snow
8:55 AM 12.2 °F -0.2 °F 7.2 °F 80% 30.18 in 7.0 mi NNW 9.2 mph - N/A Snow Light Snow
9:15 AM 12.2 °F -1.0 °F 7.2 °F 80% 30.17 in 10.0 mi NW 10.4 mph - N/A Snow Light Snow
9:35 AM 12.6 °F -0.6 °F 7.5 °F 80% 30.17 in 10.0 mi NW 10.4 mph - N/A Snow Light Snow
9:55 AM 13.1 °F 1.8 °F 7.9 °F 80% 30.18 in 7.0 mi NW 8.1 mph - N/A Snow Light Snow
10:15 AM 13.8 °F 3.7 °F 8.4 °F 79% 30.17 in 7.0 mi NW 6.9 mph - N/A Snow Light Snow
10:35 AM 14.0 °F 2.9 °F 8.6 °F 79% 30.17 in 5.0 mi NW 8.1 mph - N/A Snow Light Snow
10:55 AM 14.7 °F 2.1 °F 9.3 °F 79% 30.17 in 5.0 mi NW 10.4 mph - N/A Snow Light Snow
11:15 AM 15.4 °F 4.6 °F 9.7 °F 78% 30.17 in 5.0 mi NW 8.1 mph - N/A Snow Light Snow
11:34 AM 15.8 °F 5.1 °F 9.9 °F 77% 30.17 in 4.0 mi NW 8.1 mph - N/A Snow Light Snow
11:55 AM 16.7 °F 7.2 °F 10.4 °F 76% 30.17 in 5.0 mi NW 6.9 mph - N/A Snow Light Snow
12:15 PM 17.2 °F 7.8 °F 11.3 °F 78% 30.16 in 5.0 mi NW 6.9 mph - N/A Snow Light Snow
12:35 PM 18.0 °F 6.9 °F 10.8 °F 73% 30.15 in 10.0 mi NNW 9.2 mph - N/A   Mostly Cloudy
12:55 PM 18.3 °F 7.3 °F 9.9 °F 70% 30.15 in 10.0 mi North 9.2 mph - N/A   Scattered Clouds
1:15 PM 19.2 °F 7.0 °F 10.0 °F 67% 30.14 in 10.0 mi NNW 11.5 mph - N/A   Clear
1:35 PM 19.8 °F 8.3 °F 10.0 °F 66% 30.13 in 10.0 mi NNW 10.4 mph 17.3 mph N/A   Clear
1:55 PM 20.7 °F 11.0 °F 10.4 °F 65% 30.13 in 10.0 mi NNW 8.1 mph - N/A   Clear
2:15 PM 21.2 °F 11.7 °F 10.8 °F 64% 30.12 in 10.0 mi North 8.1 mph - N/A   Clear
2:35 PM 21.6 °F 11.3 °F 10.0 °F 61% 30.12 in 10.0 mi NW 9.2 mph - N/A   Clear
2:55 PM 21.9 °F 14.5 °F 10.4 °F 61% 30.11 in 10.0 mi NNW 5.8 mph - N/A   Clear
3:14 PM 22.1 °F 12.8 °F 11.3 °F 63% 30.11 in 10.0 mi NW 8.1 mph - N/A   Clear
3:35 PM 22.6 °F 13.4 °F 11.1 °F 61% 30.10 in 10.0 mi NNW 8.1 mph - N/A   Clear
3:55 PM 23.0 °F 13.1 °F 11.1 °F 60% 30.10 in 10.0 mi North 9.2 mph - N/A   Clear
4:15 PM 23.0 °F 14.7 °F 11.1 °F 60% 30.10 in 10.0 mi NNW 6.9 mph - N/A   Clear
4:35 PM 23.0 °F 15.8 °F 12.4 °F 64% 30.10 in 10.0 mi NNW 5.8 mph - N/A   Clear
4:55 PM 23.0 °F 13.9 °F 12.4 °F 64% 30.10 in 10.0 mi NNW 8.1 mph - N/A   Clear
5:15 PM 23.0 °F 12.4 °F 12.2 °F 63% 30.10 in 10.0 mi NW 10.4 mph - N/A   Clear
5:35 PM 22.1 °F 13.7 °F 12.0 °F 65% 30.11 in 10.0 mi NNW 6.9 mph - N/A   Clear
5:55 PM 21.2 °F 12.6 °F 11.3 °F 66% 30.11 in 10.0 mi NNW 6.9 mph - N/A   Clear
6:35 PM 20.3 °F 11.5 °F 11.8 °F 70% 30.11 in 10.0 mi NNW 6.9 mph - N/A   Clear
6:55 PM 19.9 °F 8.6 °F 11.8 °F 71% 30.11 in 10.0 mi NNW 10.4 mph - N/A   Clear
7:15 PM 18.9 °F 8.8 °F 12.0 °F 75% 30.12 in 10.0 mi NNW 8.1 mph - N/A   Clear
7:55 PM 18.1 °F 7.9 °F 12.2 °F 78% 30.12 in 10.0 mi NW 8.1 mph - N/A   Clear
8:15 PM 17.4 °F 8.0 °F 12.0 °F 79% 30.11 in 10.0 mi West 6.9 mph - N/A   Clear
8:34 PM 16.7 °F 6.2 °F 11.8 °F 81% 30.10 in 10.0 mi WNW 8.1 mph - N/A   Clear
8:55 PM 16.7 °F 6.2 °F 11.3 °F 79% 30.10 in 10.0 mi WNW 8.1 mph - N/A   Clear
9:15 PM 16.0 °F 6.3 °F 10.9 °F 81% 30.10 in 10.0 mi WNW 6.9 mph - N/A   Clear
9:35 PM 14.9 °F 5.0 °F 10.4 °F 82% 30.10 in 10.0 mi West 6.9 mph - N/A   Clear
9:55 PM 14.4 °F 5.5 °F 9.7 °F 82% 30.09 in 10.0 mi West 5.8 mph - N/A   Clear
10:15 PM 14.4 °F 3.3 °F 9.3 °F 80% 30.09 in 10.0 mi West 8.1 mph - N/A   Clear
10:35 PM 14.2 °F 3.1 °F 8.6 °F 78% 30.09 in 10.0 mi WNW 8.1 mph - N/A   Clear
10:55 PM 13.3 °F 4.2 °F 7.9 °F 79% 30.08 in 10.0 mi WNW 5.8 mph - N/A   Clear
11:15 PM 12.6 °F 3.4 °F 7.7 °F 81% 30.08 in 10.0 mi WNW 5.8 mph - N/A   Clear
11:35 PM 11.8 °F 3.9 °F 7.5 °F 83% 30.08 in 10.0 mi WNW 4.6 mph - N/A   Clear
11:55 PM 11.3 °F 3.3 °F 7.5 °F 85% 30.08 in 10.0 mi WNW 4.6 mph - N/A   Clear